[[{"header":{"parameterUnit":"m.s-1","parameterCategory":2,"la1":30.2991,"la2":30.254,"lo1":-89.0895,"lo2":-89.0444,"dy":0.0017,"dx":0.0017,"nx":28,"ny":28,"refTime":"2023-11-04T03:00:00:Z","depth":"0","parameterNumber":2,"parameterNumberName":"U-component_of_CURRENTS"},"data":[0,0,0,0,0,0,0,0,0,0,0,0,0,0,0,0,0,0,0,0,0,0,0,0,0,0,0,0,0,0,0,0,0,0,0,0,0,0,0,0,0,0,0,0,0,0,0,0,0,0,0,0,0,0,0,0,0,0,-0.2791,-0.2791,0,-0.2776,-0.2775,-0.2775,-0.2735,-0.2735,-0.2734,-0.2734,-0.2691,-0.2691,-0.269,0,0,0,0,0,0,0,0,0,0,0,0,0,-0.2782,-0.2782,-0.2791,-0.2791,-0.2791,-0.2776,-0.2775,-0.2775,-0.2735,-0.2735,-0.2734,-0.2733,-0.2692,-0.2691,-0.269,0,0,0,0,0,0,0,0,0,0,0,0,0,-0.2775,-0.2782,-0.2791,-0.2772,-0.2771,-0.2776,-0.2775,-0.2775,-0.2735,-0.2735,-0.2734,-0.2733,-0.2692,-0.2691,-0.269,-0.27,0,0,-0.2687,-0.2687,0,0,0,0,0,0,0,0,-0.2775,-0.2775,-0.2775,-0.2773,-0.2772,-0.276,-0.2757,-0.2749,-0.2736,-0.2745,-0.2734,-0.2733,-0.2715,-0.2712,-0.2706,-0.2698,-0.2696,-0.2687,-0.2686,-0.2686,-0.2686,0,0,0,0,0,0,0,-0.2776,-0.2775,-0.2781,-0.2775,-0.2773,-0.2764,-0.2762,-0.2755,-0.2731,-0.2744,-0.2742,-0.2746,-0.2713,-0.2707,-0.2705,-0.2695,-0.2687,-0.2686,-0.2686,-0.2685,-0.2669,-0.2669,0,0,0,0,0,0,-0.2786,-0.2776,-0.2782,-0.2781,-0.2776,-0.2765,-0.2762,-0.2761,-0.2732,-0.2728,-0.2747,-0.2745,-0.2709,-0.2706,-0.2703,-0.271,-0.2686,-0.2685,-0.2685,-0.2669,-0.2669,-0.2669,0,0,0,0,0,0,-0.2786,-0.2787,-0.2782,-0.2781,-0.278,-0.2766,-0.2765,-0.2762,-0.2755,-0.2735,-0.2729,-0.2745,-0.2708,-0.2704,-0.2695,-0.2708,-0.2685,-0.2684,-0.2669,-0.2669,-0.2669,-0.2726,0,0,0,0,0,0,-0.2786,-0.2786,-0.2783,-0.2782,-0.2781,-0.2791,-0.2767,-0.2762,-0.2761,-0.2757,-0.2732,-0.2727,-0.2707,-0.2697,-0.2694,-0.2706,-0.2683,-0.2669,-0.2669,-0.2669,-0.2724,-0.2728,-0.2732,0,0,0,0,0,-0.2785,-0.2786,-0.2783,-0.2784,-0.2779,-0.2792,-0.279,-0.2775,-0.2762,-0.2764,-0.2742,-0.2727,-0.2697,-0.2697,-0.2694,-0.2706,-0.2668,-0.2669,-0.2669,-0.2722,-0.2727,-0.2732,0,0,0,0,0,0,-0.2775,-0.2783,-0.2779,-0.278,-0.2789,-0.2786,-0.2784,-0.278,-0.2766,-0.2756,-0.2733,-0.2727,-0.2724,-0.2705,-0.2706,-0.27,-0.2679,-0.2679,-0.272,-0.2725,-0.2729,-0.2724,-0.2682,0,0,0,0,0,-0.2775,-0.2775,-0.2789,-0.2786,-0.2794,-0.2791,-0.2792,-0.2787,-0.2779,-0.2771,-0.2755,-0.2734,-0.2724,-0.2717,-0.2703,-0.2704,-0.2679,-0.2707,-0.2711,-0.2714,-0.2707,-0.2694,-0.2697,-0.267,-0.267,-0.267,0,0,-0.2766,-0.2773,-0.2769,-0.2784,-0.2784,-0.2798,-0.2788,-0.2794,-0.2799,-0.277,-0.2763,-0.275,-0.2727,-0.2725,-0.2722,-0.2711,-0.2707,-0.2715,-0.2718,-0.2709,-0.2695,-0.2698,-0.27,-0.2671,-0.2671,-0.2671,0,0,-0.2758,-0.2761,-0.2762,-0.2778,-0.2793,-0.2799,-0.2806,-0.2812,-0.2807,-0.2809,-0.2787,-0.2781,-0.2764,-0.2752,-0.2743,-0.276,-0.2731,-0.2756,-0.2773,-0.2762,-0.2764,-0.2765,-0.2734,-0.2733,-0.2757,-0.2757,-0.2757,0,-0.2747,-0.2751,-0.2765,-0.2781,-0.2791,-0.2803,-0.2816,-0.2821,-0.282,-0.282,-0.281,-0.2789,-0.2776,-0.2773,-0.2776,-0.277,-0.275,-0.2761,-0.2768,-0.2769,-0.277,-0.2737,-0.2735,-0.276,-0.276,-0.2759,-0.2759,0,-0.2743,-0.2753,-0.2759,-0.278,-0.2799,-0.281,-0.2834,-0.2844,-0.2843,-0.2845,-0.2845,-0.2827,-0.2812,-0.2814,-0.28,-0.2801,-0.278,-0.2779,-0.276,-0.2776,-0.274,-0.2737,-0.2764,-0.2763,-0.2762,-0.2761,0,0,-0.269,-0.2745,-0.2743,-0.276,-0.2799,-0.2812,-0.2837,-0.2858,-0.2868,-0.2869,-0.2874,-0.2864,-0.2855,-0.2843,-0.2831,-0.2823,-0.2815,-0.2804,-0.2802,-0.2779,-0.2774,-0.2683,-0.267,-0.2819,-0.2818,-0.2818,-0.2747,0,-0.2675,-0.2706,-0.2737,-0.2762,-0.278,-0.2817,-0.2841,-0.2865,-0.2879,-0.289,-0.2884,-0.2881,-0.2867,-0.2862,-0.2855,-0.283,-0.2808,-0.2833,-0.2756,-0.2753,-0.2676,-0.2664,-0.256,-0.248,-0.2743,-0.2742,-0.2742,0,-0.2642,-0.2675,-0.27,-0.276,-0.2772,-0.279,-0.2831,-0.2855,-0.2888,-0.29,-0.2904,-0.2901,-0.2893,-0.2878,-0.2836,-0.2853,-0.2811,-0.2787,-0.2783,-0.2673,-0.2655,-0.2506,-0.2463,-0.2439,-0.2736,-0.2736,-0.2737,0,-0.2579,-0.2638,-0.2656,-0.2675,-0.275,-0.2765,-0.28,-0.2846,-0.2865,-0.2899,-0.2908,-0.291,-0.2896,-0.2866,-0.2812,-0.2827,-0.2753,-0.2769,-0.264,-0.2633,-0.2512,-0.2494,-0.2438,-0.2721,-0.2721,-0.2721,-0.2721,0,-0.2537,-0.2547,-0.2628,-0.2638,-0.266,-0.273,-0.2749,-0.2791,-0.2843,-0.2852,-0.2897,-0.2883,-0.2892,-0.2853,-0.2812,-0.2701,-0.2746,-0.2626,-0.2605,-0.2527,-0.2512,-0.2459,-0.2482,-0.2718,-0.2719,-0.2719,-0.272,0,-0.2443,-0.2503,-0.2524,-0.2605,-0.2626,-0.2636,-0.2709,-0.2729,-0.2793,-0.2806,-0.2815,-0.2856,-0.2806,-0.2787,-0.2729,-0.2676,-0.2543,-0.2542,-0.2438,-0.2405,-0.2265,-0.2295,-0.2203,-0.2142,-0.2397,-0.2394,-0.2392,0,-0.2392,-0.2393,-0.247,-0.2484,-0.2513,-0.255,-0.2577,-0.2674,-0.27,-0.2762,-0.2756,-0.2743,-0.2695,-0.2588,-0.2501,-0.2401,-0.2411,-0.225,-0.2257,-0.2223,-0.2243,-0.2276,-0.2235,-0.2122,-0.2118,-0.2114,-0.2111,0,-0.2279,-0.2305,-0.233,-0.2368,-0.2398,-0.2427,-0.2478,-0.2495,-0.2596,-0.2611,-0.2601,-0.2574,-0.2494,-0.235,-0.2244,-0.2174,-0.2195,-0.2172,-0.2169,-0.2037,-0.2038,-0.1979,-0.2204,-0.208,-0.2083,-0.2085,-0.2087,-0.2088,-0.2169,-0.2165,-0.2203,-0.2219,-0.226,-0.2273,-0.2256,-0.2317,-0.2323,-0.2314,-0.2384,-0.2307,-0.2241,-0.2072,-0.1997,-0.1853,-0.1935,-0.181,-0.1852,-0.1892,-0.1818,-0.1958,-0.1794,-0.1795,-0.1797,-0.1798,-0.1799,0,-0.2021,-0.2037,-0.2054,-0.2074,-0.206,-0.2133,-0.216,-0.2121,-0.2071,-0.2092,-0.2054,-0.1985,-0.1844,-0.1801,-0.1666,-0.1574,-0.1554,-0.1547,-0.1587,-0.1562,-0.1695,-0.1668,-0.1429,-0.1429,-0.1429,-0.1429,-0.1429,-0.1429,-0.1945,-0.1908,-0.1923,-0.1851,-0.1872,-0.1833,-0.1818,-0.1762,-0.1754,-0.1642,-0.162,-0.1632,-0.162,-0.1686,-0.1546,-0.1459,-0.1438,-0.1382,-0.1423,-0.1547,-0.1576,-0.1604,-0.1582,-0.1329,-0.1329,-0.123,-0.1229,-0.1229]},{"header":{"parameterUnit":"m.s-1","parameterCategory":2,"la1":30.2991,"la2":30.254,"lo1":-89.0895,"lo2":-89.0444,"dy":0.0017,"dx":0.0017,"nx":28,"ny":28,"refTime":"2023-11-04T03:00:00:Z","depth":"0","parameterNumber":3,"parameterNumberName":"V-component_of_CURRENTS"},"data":[0,0,0,0,0,0,0,0,0,0,0,0,0,0,0,0,0,0,0,0,0,0,0,0,0,0,0,0,0,0,0,0,0,0,0,0,0,0,0,0,0,0,0,0,0,0,0,0,0,0,0,0,0,0,0,0,0,0,-0.0487,-0.0487,0,-0.0413,-0.0412,-0.0411,-0.0367,-0.0366,-0.0366,-0.0366,-0.0236,-0.0233,-0.023,0,0,0,0,0,0,0,0,0,0,0,0,0,-0.0564,-0.0563,-0.0487,-0.0486,-0.0486,-0.0413,-0.0412,-0.0411,-0.0367,-0.0366,-0.0366,-0.0366,-0.0237,-0.0234,-0.023,0,0,0,0,0,0,0,0,0,0,0,0,0,-0.0514,-0.0563,-0.0488,-0.0455,-0.0452,-0.0413,-0.0412,-0.041,-0.0367,-0.0366,-0.0366,-0.0366,-0.0239,-0.0234,-0.0229,-0.0203,0,0,-0.0214,-0.0212,0,0,0,0,0,0,0,0,-0.0517,-0.0511,-0.0461,-0.0457,-0.0453,-0.0399,-0.0391,-0.0338,-0.0367,-0.0399,-0.0366,-0.0366,-0.0286,-0.0277,-0.0264,-0.0197,-0.0191,-0.0213,-0.021,-0.0208,-0.0207,0,0,0,0,0,0,0,-0.052,-0.0514,-0.0457,-0.046,-0.0455,-0.0435,-0.0428,-0.0381,-0.0343,-0.0396,-0.0392,-0.0385,-0.0283,-0.0269,-0.026,-0.019,-0.0214,-0.0209,-0.0206,-0.0204,-0.0097,-0.0097,0,0,0,0,0,0,-0.0532,-0.0517,-0.046,-0.0455,-0.0485,-0.0434,-0.0426,-0.0416,-0.0345,-0.0334,-0.0385,-0.0383,-0.0277,-0.0266,-0.0256,-0.0228,-0.0208,-0.0204,-0.0201,-0.0097,-0.0097,-0.0097,0,0,0,0,0,0,-0.0534,-0.0527,-0.0463,-0.0485,-0.0475,-0.0433,-0.0423,-0.0415,-0.04,-0.0337,-0.0326,-0.0378,-0.0277,-0.0263,-0.0221,-0.0222,-0.0201,-0.0197,-0.0097,-0.0097,-0.0097,-0.0168,0,0,0,0,0,0,-0.0536,-0.0529,-0.0527,-0.0486,-0.0474,-0.0445,-0.0423,-0.0414,-0.0396,-0.0393,-0.0327,-0.0315,-0.0276,-0.0229,-0.0216,-0.0215,-0.0193,-0.0097,-0.0097,-0.0097,-0.0166,-0.0171,-0.0175,0,0,0,0,0,-0.0539,-0.0539,-0.0527,-0.052,-0.0473,-0.0446,-0.0438,-0.0407,-0.0396,-0.0392,-0.0351,-0.0317,-0.0221,-0.0225,-0.021,-0.0208,-0.0096,-0.0097,-0.0097,-0.0163,-0.017,-0.0175,0,0,0,0,0,0,-0.057,-0.0533,-0.052,-0.0507,-0.0482,-0.0438,-0.0432,-0.0411,-0.0376,-0.0373,-0.0316,-0.0301,-0.0266,-0.0227,-0.0232,-0.0178,-0.0154,-0.0151,-0.0209,-0.0215,-0.0219,-0.0236,-0.0189,0,0,0,0,0,-0.0577,-0.0568,-0.053,-0.0522,-0.0511,-0.0474,-0.0459,-0.0439,-0.0402,-0.0387,-0.0342,-0.0295,-0.0255,-0.0229,-0.0187,-0.0153,-0.0106,-0.0143,-0.0148,-0.0152,-0.0155,-0.0095,-0.0094,-0.0098,-0.0098,-0.0098,0,0,-0.0588,-0.0566,-0.0561,-0.0528,-0.0506,-0.05,-0.0464,-0.0447,-0.0441,-0.0377,-0.0354,-0.031,-0.0251,-0.0219,-0.0199,-0.0185,-0.0124,-0.0152,-0.0157,-0.0157,-0.0095,-0.0094,-0.0094,-0.0098,-0.0098,-0.0098,0,0,-0.0612,-0.0586,-0.0591,-0.0574,-0.0546,-0.0521,-0.0519,-0.0479,-0.046,-0.0431,-0.0388,-0.0346,-0.0283,-0.0242,-0.0214,-0.0217,-0.0154,-0.0204,-0.0235,-0.0177,-0.0176,-0.0175,-0.0109,-0.0101,-0.0203,-0.0203,-0.0203,0,-0.0629,-0.0629,-0.0589,-0.0592,-0.0586,-0.0536,-0.0546,-0.0517,-0.0469,-0.0452,-0.0434,-0.0343,-0.0294,-0.025,-0.0255,-0.0227,-0.0182,-0.0221,-0.0184,-0.0181,-0.0179,-0.0111,-0.0102,-0.0207,-0.0206,-0.0206,-0.0206,0,-0.0659,-0.0661,-0.0664,-0.0652,-0.0637,-0.0637,-0.0596,-0.0576,-0.0546,-0.0511,-0.0463,-0.0395,-0.034,-0.0319,-0.0288,-0.0248,-0.0218,-0.0201,-0.0173,-0.0183,-0.0111,-0.01,-0.0212,-0.021,-0.0209,-0.0209,0,0,-0.0692,-0.0689,-0.069,-0.0705,-0.0672,-0.0667,-0.0652,-0.0622,-0.061,-0.0553,-0.0527,-0.0458,-0.0415,-0.038,-0.0328,-0.0277,-0.0219,-0.0239,-0.0235,-0.018,-0.0083,-0.003,-0.0012,-0.0198,-0.0196,-0.0195,-0.0037,0,-0.0733,-0.0767,-0.0743,-0.0773,-0.079,-0.0743,-0.0733,-0.0696,-0.0648,-0.0605,-0.0526,-0.0479,-0.0439,-0.041,-0.0355,-0.025,-0.0195,-0.0263,-0.0075,-0.0069,-0.0026,0.0001,0.004,0.0187,-0.0026,-0.0024,-0.0023,0,-0.0773,-0.0792,-0.0834,-0.0845,-0.0845,-0.0846,-0.082,-0.0805,-0.0727,-0.0686,-0.0619,-0.0548,-0.0459,-0.0428,-0.0256,-0.0302,-0.0205,-0.0124,-0.0115,-0.0034,0.0004,0.0163,0.0215,0.0355,-0.0005,-0.0006,-0.0008,0,-0.083,-0.0856,-0.0896,-0.09,-0.0896,-0.0899,-0.089,-0.0831,-0.0812,-0.0731,-0.0696,-0.0583,-0.0508,-0.0386,-0.0216,-0.0234,-0.0019,-0.0017,0.0125,0.013,0.0217,0.0228,0.0422,0.0097,0.0097,0.0096,0.0096,0,-0.0888,-0.0919,-0.0928,-0.0952,-0.0991,-0.0961,-0.0973,-0.0941,-0.0878,-0.0842,-0.0744,-0.0674,-0.0495,-0.0348,-0.0215,0.0002,-0.0011,0.0131,0.0177,0.0194,0.0201,0.0369,0.0417,0.0102,0.0101,0.01,0.0099,0,-0.0945,-0.0952,-0.1001,-0.1015,-0.1023,-0.105,-0.104,-0.1035,-0.097,-0.0915,-0.0889,-0.0722,-0.052,-0.0332,-0.0096,0.0021,0.031,0.0282,0.0295,0.0339,0.0582,0.0623,0.0862,0.0956,0.0465,0.0467,0.0469,0,-0.098,-0.1011,-0.1056,-0.1089,-0.1099,-0.1128,-0.1139,-0.109,-0.1066,-0.0933,-0.0898,-0.0697,-0.0524,-0.016,0.0083,0.0347,0.0437,0.0523,0.049,0.0619,0.0699,0.0717,0.078,0.0587,0.059,0.0592,0.0594,0,-0.104,-0.105,-0.1091,-0.1161,-0.1192,-0.1223,-0.1223,-0.121,-0.1124,-0.1042,-0.0875,-0.0725,-0.0363,-0.0022,0.0307,0.045,0.0636,0.0577,0.0715,0.0819,0.0849,0.0954,0.0461,0.0614,0.0612,0.061,0.0609,0.0608,-0.1074,-0.1121,-0.1168,-0.1229,-0.1267,-0.1285,-0.1272,-0.1227,-0.1157,-0.0971,-0.0858,-0.0569,-0.0118,0.0366,0.0538,0.0886,0.0829,0.0972,0.1017,0.1028,0.1106,0.0656,0.0849,0.0848,0.0848,0.0847,0.0847,0,-0.1113,-0.1162,-0.1231,-0.129,-0.1322,-0.133,-0.1296,-0.1215,-0.1085,-0.0908,-0.0709,-0.0186,0.026,0.066,0.1134,0.1313,0.1346,0.1389,0.1427,0.1475,0.1097,0.1087,0.1333,0.1333,0.1333,0.1333,0.1333,0.1332,-0.1137,-0.1209,-0.1245,-0.131,-0.1343,-0.1316,-0.1273,-0.1104,-0.0933,-0.0564,-0.0254,-0.003,0.0508,0.1245,0.1675,0.1701,0.1855,0.1831,0.192,0.165,0.1614,0.1579,0.1583,0.1929,0.193,0.2285,0.2289,0.2291]}],[{"header":{"parameterUnit":"m.s-1","parameterCategory":2,"la1":30.2991,"la2":30.254,"lo1":-89.0895,"lo2":-89.0444,"dy":0.0017,"dx":0.0017,"nx":28,"ny":28,"refTime":"2023-11-04T03:00:00:Z","depth":"2","parameterNumber":2,"parameterNumberName":"U-component_of_CURRENTS"},"data":[0,0,0,0,0,0,0,0,0,0,0,0,0,0,0,0,0,0,0,0,0,0,0,0,0,0,0,0,0,0,0,0,0,0,0,0,0,0,0,0,0,0,0,0,0,0,0,0,0,0,0,0,0,0,0,0,0,0,-0.2489,-0.2489,0,-0.2481,-0.2481,-0.2481,-0.2454,-0.2453,-0.2453,-0.2453,-0.2435,-0.2435,-0.2434,0,0,0,0,0,0,0,0,0,0,0,0,0,-0.2462,-0.2463,-0.2489,-0.2489,-0.2489,-0.2481,-0.2481,-0.248,-0.2454,-0.2453,-0.2453,-0.2452,-0.2435,-0.2435,-0.2434,0,0,0,0,0,0,0,0,0,0,0,0,0,-0.2464,-0.2463,-0.2489,-0.2477,-0.2476,-0.2481,-0.2481,-0.248,-0.2454,-0.2453,-0.2453,-0.2452,-0.2435,-0.2435,-0.2434,-0.2443,0,0,-0.2434,-0.2434,0,0,0,0,0,0,0,0,-0.2464,-0.2464,-0.2478,-0.2478,-0.2477,-0.247,-0.2465,-0.2469,-0.2454,-0.2459,-0.2453,-0.2452,-0.2448,-0.2447,-0.2442,-0.2443,-0.2442,-0.2434,-0.2434,-0.2433,-0.2433,0,0,0,0,0,0,0,-0.2464,-0.2464,-0.2483,-0.2479,-0.2478,-0.2466,-0.2466,-0.2465,-0.2454,-0.2459,-0.2457,-0.2461,-0.2447,-0.2443,-0.2442,-0.2441,-0.2434,-0.2433,-0.2433,-0.2433,-0.2439,-0.244,0,0,0,0,0,0,-0.2472,-0.2465,-0.2483,-0.2483,-0.2472,-0.2467,-0.2467,-0.2471,-0.2454,-0.2452,-0.2462,-0.246,-0.2443,-0.2442,-0.2441,-0.2458,-0.2433,-0.2433,-0.2433,-0.2439,-0.2439,-0.244,0,0,0,0,0,0,-0.2471,-0.2474,-0.2483,-0.2476,-0.2476,-0.2469,-0.2473,-0.2471,-0.247,-0.2457,-0.2454,-0.2464,-0.2443,-0.2441,-0.2442,-0.2457,-0.2433,-0.2433,-0.2439,-0.2439,-0.244,-0.2488,0,0,0,0,0,0,-0.2471,-0.2474,-0.2476,-0.2476,-0.2477,-0.2493,-0.2474,-0.2471,-0.2474,-0.2472,-0.2459,-0.2456,-0.2442,-0.2443,-0.2442,-0.2456,-0.2433,-0.2438,-0.2439,-0.2439,-0.2486,-0.249,-0.2494,0,0,0,0,0,-0.247,-0.2476,-0.2476,-0.2478,-0.2482,-0.2494,-0.2494,-0.2484,-0.2475,-0.248,-0.2467,-0.2457,-0.2445,-0.2443,-0.2442,-0.2457,-0.2438,-0.2439,-0.2439,-0.2484,-0.2489,-0.2494,0,0,0,0,0,0,-0.2462,-0.2474,-0.2474,-0.2483,-0.2492,-0.2491,-0.2492,-0.2491,-0.2484,-0.2479,-0.2463,-0.2461,-0.2466,-0.2454,-0.2451,-0.2458,-0.2439,-0.244,-0.2474,-0.2478,-0.2482,-0.2474,-0.2433,0,0,0,0,0,-0.2465,-0.247,-0.2485,-0.2489,-0.2497,-0.2497,-0.2499,-0.2498,-0.2495,-0.2491,-0.2483,-0.2472,-0.2468,-0.2467,-0.246,-0.2468,-0.2445,-0.2475,-0.2479,-0.2482,-0.2474,-0.2463,-0.2465,-0.2442,-0.2442,-0.2442,0,0,-0.2461,-0.2469,-0.247,-0.2488,-0.249,-0.2505,-0.2496,-0.2505,-0.2513,-0.2491,-0.2494,-0.2487,-0.2473,-0.2478,-0.248,-0.2471,-0.2475,-0.2483,-0.2486,-0.2476,-0.2464,-0.2466,-0.2468,-0.2442,-0.2442,-0.2442,0,0,-0.2457,-0.2467,-0.2472,-0.2487,-0.2503,-0.2509,-0.2517,-0.2525,-0.2525,-0.2534,-0.2518,-0.2517,-0.2515,-0.2505,-0.25,-0.252,-0.2496,-0.2522,-0.2537,-0.2527,-0.2529,-0.253,-0.2499,-0.2498,-0.2524,-0.2525,-0.2525,0,-0.2452,-0.246,-0.2475,-0.249,-0.2501,-0.2515,-0.2528,-0.2536,-0.2542,-0.2545,-0.254,-0.2533,-0.2525,-0.2527,-0.2531,-0.2529,-0.2512,-0.2525,-0.2533,-0.2533,-0.2534,-0.2502,-0.2499,-0.2527,-0.2527,-0.2526,-0.2526,0,-0.2451,-0.2465,-0.2472,-0.2494,-0.2513,-0.2526,-0.2549,-0.2563,-0.2569,-0.2573,-0.258,-0.2569,-0.2561,-0.2566,-0.2555,-0.2558,-0.254,-0.254,-0.2523,-0.2539,-0.2504,-0.2501,-0.253,-0.253,-0.2529,-0.2528,0,0,-0.2411,-0.2462,-0.2461,-0.2477,-0.2516,-0.2529,-0.2557,-0.2579,-0.2592,-0.26,-0.2609,-0.2606,-0.26,-0.2592,-0.2584,-0.2577,-0.2567,-0.2562,-0.2561,-0.2534,-0.253,-0.2448,-0.2436,-0.2575,-0.2574,-0.2574,-0.2503,0,-0.24,-0.243,-0.2459,-0.2485,-0.2502,-0.2538,-0.2564,-0.259,-0.2607,-0.2623,-0.262,-0.2624,-0.2612,-0.2611,-0.2603,-0.258,-0.256,-0.2585,-0.2515,-0.2512,-0.244,-0.243,-0.2263,-0.2179,-0.2499,-0.2498,-0.2498,0,-0.2374,-0.2404,-0.2429,-0.2485,-0.2496,-0.2517,-0.2559,-0.2584,-0.2619,-0.2634,-0.2642,-0.2643,-0.2636,-0.2625,-0.2583,-0.2601,-0.2562,-0.254,-0.2537,-0.2438,-0.2423,-0.2215,-0.216,-0.2491,-0.2492,-0.2492,-0.2493,0,-0.232,-0.2374,-0.2393,-0.2412,-0.2481,-0.2498,-0.2532,-0.2578,-0.2597,-0.2635,-0.2647,-0.265,-0.2641,-0.2611,-0.2562,-0.2576,-0.2507,-0.252,-0.2403,-0.2396,-0.2225,-0.2204,-0.2475,-0.2475,-0.2475,-0.2475,-0.2476,0,-0.2286,-0.2297,-0.237,-0.2381,-0.2404,-0.2468,-0.249,-0.2531,-0.2582,-0.2592,-0.2639,-0.2628,-0.2637,-0.2603,-0.2562,-0.2459,-0.2501,-0.2389,-0.237,-0.2236,-0.2218,-0.2469,-0.2469,-0.2473,-0.2473,-0.2474,-0.2474,0,-0.2207,-0.2259,-0.2281,-0.2356,-0.2375,-0.2387,-0.2456,-0.2476,-0.254,-0.2554,-0.2564,-0.2605,-0.2558,-0.2545,-0.2489,-0.2437,-0.2365,-0.2314,-0.2147,-0.2109,-0.2261,-0.2265,-0.218,-0.2176,-0.2173,-0.2171,-0.2168,0,-0.2164,-0.2168,-0.2237,-0.225,-0.2278,-0.2314,-0.2339,-0.2429,-0.2451,-0.2512,-0.2505,-0.2499,-0.2449,-0.2351,-0.2266,-0.2171,-0.2257,-0.197,-0.1964,-0.2239,-0.223,-0.2238,-0.2246,-0.1754,-0.1748,-0.1744,-0.1741,0,-0.207,-0.2093,-0.2116,-0.2149,-0.2176,-0.2201,-0.2246,-0.2259,-0.235,-0.2363,-0.2349,-0.2319,-0.2246,-0.2069,-0.1976,-0.1904,-0.1981,-0.1877,-0.2194,-0.1863,-0.1834,-0.1827,-0.1849,-0.1702,-0.1706,-0.1708,-0.1711,-0.1712,-0.1978,-0.1973,-0.2006,-0.2018,-0.2055,-0.2057,-0.202,-0.2079,-0.2076,-0.2048,-0.2123,-0.2012,-0.1998,-0.1747,-0.1644,-0.1569,-0.1708,-0.1639,-0.1654,-0.1673,-0.1645,-0.1613,-0.1433,-0.1435,-0.1437,-0.1439,-0.144,0,-0.185,-0.1861,-0.1873,-0.188,-0.1856,-0.1922,-0.1925,-0.1849,-0.1781,-0.1798,-0.175,-0.1549,-0.1437,-0.1426,-0.1242,-0.121,-0.1214,-0.1167,-0.1176,-0.1215,-0.1249,-0.1202,-0.0871,-0.0869,-0.0867,-0.0866,0,0,-0.1784,-0.1745,-0.1752,-0.1663,-0.1668,-0.1558,-0.1517,-0.1435,-0.1396,-0.1283,-0.1229,-0.1326,-0.1366,-0.1111,-0.1058,-0.0928,-0.1059,-0.088,-0.1336,-0.1384,-0.1416,-0.1519,-0.1489,0,0,0,0,0]},{"header":{"parameterUnit":"m.s-1","parameterCategory":2,"la1":30.2991,"la2":30.254,"lo1":-89.0895,"lo2":-89.0444,"dy":0.0017,"dx":0.0017,"nx":28,"ny":28,"refTime":"2023-11-04T03:00:00:Z","depth":"2","parameterNumber":3,"parameterNumberName":"V-component_of_CURRENTS"},"data":[0,0,0,0,0,0,0,0,0,0,0,0,0,0,0,0,0,0,0,0,0,0,0,0,0,0,0,0,0,0,0,0,0,0,0,0,0,0,0,0,0,0,0,0,0,0,0,0,0,0,0,0,0,0,0,0,0,0,-0.0344,-0.0343,0,-0.0278,-0.0277,-0.0276,-0.0238,-0.0238,-0.0238,-0.0237,-0.0124,-0.0121,-0.0118,0,0,0,0,0,0,0,0,0,0,0,0,0,-0.0407,-0.0406,-0.0344,-0.0343,-0.0343,-0.0278,-0.0277,-0.0276,-0.0238,-0.0238,-0.0237,-0.0237,-0.0125,-0.0121,-0.0118,0,0,0,0,0,0,0,0,0,0,0,0,0,-0.0364,-0.0406,-0.0344,-0.0316,-0.0313,-0.0278,-0.0277,-0.0276,-0.0238,-0.0238,-0.0237,-0.0237,-0.0126,-0.0122,-0.0117,-0.0095,0,0,-0.0104,-0.0102,0,0,0,0,0,0,0,0,-0.0367,-0.0362,-0.0321,-0.0318,-0.0314,-0.0266,-0.0258,-0.0213,-0.0238,-0.0266,-0.0237,-0.0237,-0.0167,-0.016,-0.0148,-0.009,-0.0085,-0.0104,-0.0101,-0.0099,-0.0098,0,0,0,0,0,0,0,-0.037,-0.0364,-0.0318,-0.032,-0.0316,-0.0296,-0.029,-0.0249,-0.0218,-0.0264,-0.0261,-0.0254,-0.0165,-0.0152,-0.0145,-0.0083,-0.0104,-0.01,-0.0097,-0.0096,0.0,-0.0,0,0,0,0,0,0,-0.038,-0.0367,-0.032,-0.0316,-0.0341,-0.0295,-0.0288,-0.0282,-0.0219,-0.021,-0.0254,-0.0252,-0.016,-0.015,-0.0141,-0.0111,-0.0099,-0.0095,-0.0093,0.0,0.0,-0.0,0,0,0,0,0,0,-0.0382,-0.0376,-0.0323,-0.034,-0.0332,-0.0294,-0.0287,-0.028,-0.0268,-0.0212,-0.0202,-0.0249,-0.0159,-0.0147,-0.011,-0.0106,-0.0093,-0.0089,0.0,0.0,-0.0,-0.005,0,0,0,0,0,0,-0.0384,-0.0377,-0.0378,-0.0341,-0.0331,-0.0308,-0.0287,-0.0279,-0.0264,-0.0261,-0.0204,-0.0194,-0.0158,-0.0117,-0.0106,-0.01,-0.0086,0.0,0.0,0.0,-0.0049,-0.0052,-0.0055,0,0,0,0,0,-0.0386,-0.0388,-0.0378,-0.0373,-0.0333,-0.0308,-0.0301,-0.0273,-0.0264,-0.0261,-0.0225,-0.0195,-0.0109,-0.0113,-0.01,-0.0093,0.0,0.0,0.0,-0.0047,-0.0051,-0.0055,0,0,0,0,0,0,-0.0415,-0.0383,-0.0372,-0.0363,-0.034,-0.0301,-0.0296,-0.0278,-0.0247,-0.0245,-0.0194,-0.0181,-0.0148,-0.0115,-0.012,-0.0067,-0.005,-0.0048,-0.009,-0.0094,-0.0097,-0.0111,-0.0082,0,0,0,0,0,-0.0422,-0.0416,-0.0382,-0.0377,-0.0367,-0.0334,-0.0321,-0.0303,-0.0271,-0.0258,-0.0218,-0.0176,-0.0138,-0.0113,-0.0077,-0.0044,-0.0004,-0.0032,-0.0035,-0.0038,-0.0041,0.0019,0.0021,-0.0,-0.0,-0.0,0,0,-0.0433,-0.0414,-0.0411,-0.0383,-0.0364,-0.0356,-0.0326,-0.0311,-0.0302,-0.0249,-0.0225,-0.0187,-0.0134,-0.0101,-0.0083,-0.0072,-0.0011,-0.0038,-0.0041,-0.0042,0.0019,0.0021,0.0023,-0.0001,-0.0001,-0.0001,0,0,-0.0454,-0.0435,-0.0439,-0.0423,-0.0398,-0.0375,-0.0374,-0.0338,-0.0319,-0.0292,-0.0253,-0.0213,-0.0158,-0.0115,-0.0088,-0.0085,-0.0034,-0.0077,-0.0097,-0.0039,-0.0036,-0.0034,0.0019,0.0027,-0.0073,-0.0073,-0.0073,0,-0.047,-0.0469,-0.0436,-0.0436,-0.0428,-0.0388,-0.0393,-0.0366,-0.0322,-0.0304,-0.0293,-0.0207,-0.0162,-0.0112,-0.0115,-0.0091,-0.0055,-0.0087,-0.0043,-0.0039,-0.0036,0.0018,0.0027,-0.0076,-0.0075,-0.0075,-0.0075,0,-0.0493,-0.0494,-0.0495,-0.0482,-0.0467,-0.0465,-0.0427,-0.0409,-0.0382,-0.035,-0.0302,-0.0241,-0.0188,-0.0167,-0.014,-0.0094,-0.0076,-0.0058,-0.0035,-0.0037,0.002,0.0031,-0.0079,-0.0078,-0.0078,-0.0077,0,0,-0.0526,-0.0516,-0.0517,-0.0525,-0.0494,-0.0488,-0.0468,-0.0436,-0.0423,-0.0372,-0.0344,-0.0275,-0.024,-0.0206,-0.0159,-0.0108,-0.0051,-0.008,-0.0076,-0.0031,0.0074,0.0104,0.0118,-0.0028,-0.0027,-0.0026,0.0104,0,-0.0557,-0.0579,-0.0556,-0.0574,-0.0584,-0.0542,-0.0528,-0.0491,-0.0449,-0.041,-0.0334,-0.0293,-0.0254,-0.023,-0.0172,-0.0081,-0.0026,-0.0088,0.0072,0.0077,0.0101,0.0131,0.0098,0.0212,0.0114,0.0116,0.0117,0,-0.059,-0.0601,-0.0629,-0.0629,-0.0628,-0.0626,-0.0597,-0.058,-0.0508,-0.0472,-0.0409,-0.0349,-0.0263,-0.0236,-0.0075,-0.0119,-0.0032,0.004,0.0047,0.0099,0.0127,0.0199,0.0235,0.0135,0.0134,0.0133,0.0131,0,-0.0641,-0.0652,-0.068,-0.0681,-0.0669,-0.0668,-0.0657,-0.0601,-0.0585,-0.0511,-0.0484,-0.0374,-0.0314,-0.0195,-0.0047,-0.006,0.013,0.0137,0.0249,0.0252,0.0269,0.0271,0.0248,0.0248,0.0248,0.0247,0.0247,0,-0.0687,-0.0709,-0.071,-0.0726,-0.0757,-0.0724,-0.0733,-0.0701,-0.0647,-0.0621,-0.0525,-0.0469,-0.0302,-0.0174,-0.0049,0.0139,0.0137,0.0255,0.0292,0.0251,0.025,0.0215,0.0209,0.0252,0.0251,0.025,0.0249,0,-0.0739,-0.0739,-0.0775,-0.0778,-0.0785,-0.0807,-0.0798,-0.0795,-0.0736,-0.0696,-0.0675,-0.0527,-0.0352,-0.0179,0.0035,0.0143,0.0311,0.0374,0.0312,0.034,0.0393,0.0384,0.0517,0.0519,0.0521,0.0522,0.0524,0,-0.0768,-0.0792,-0.0824,-0.0854,-0.0859,-0.0884,-0.0896,-0.0851,-0.0833,-0.0724,-0.07,-0.0529,-0.0384,-0.006,0.0152,0.0389,0.0378,0.0488,0.0462,0.04,0.0424,0.0411,0.0399,0.0468,0.0468,0.0469,0.047,0,-0.082,-0.0829,-0.0859,-0.0923,-0.0952,-0.098,-0.0983,-0.0978,-0.0906,-0.084,-0.0705,-0.058,-0.0274,-0.0005,0.0285,0.0408,0.0446,0.0509,0.0483,0.0397,0.0363,0.0383,0.0371,0.0475,0.0475,0.0474,0.0474,0.0474,-0.0854,-0.0894,-0.0934,-0.0991,-0.1029,-0.1052,-0.1052,-0.1016,-0.0965,-0.0825,-0.0713,-0.0484,-0.025,0.0184,0.0375,0.0543,0.0536,0.0577,0.0572,0.0566,0.053,0.05,0.0632,0.0632,0.0632,0.0632,0.0633,0,-0.0895,-0.0939,-0.0999,-0.1057,-0.1095,-0.1099,-0.1088,-0.1049,-0.0958,-0.0807,-0.0642,-0.0352,-0.0052,0.0188,0.0469,0.0631,0.0598,0.0644,0.0571,0.0565,0.0559,0.0519,0.062,0.0621,0.0621,0.0622,0,0,-0.0921,-0.0986,-0.1017,-0.1091,-0.1127,-0.1133,-0.1112,-0.103,-0.091,-0.0732,-0.0545,-0.0319,-0.0028,0.0172,0.0362,0.0505,0.0485,0.0506,0.0496,0.0379,0.0372,0.0501,0.0431,0,0,0,0,0]}],[{"header":{"parameterUnit":"m.s-1","parameterCategory":2,"la1":30.2991,"la2":30.254,"lo1":-89.0895,"lo2":-89.0444,"dy":0.0017,"dx":0.0017,"nx":28,"ny":28,"refTime":"2023-11-04T03:00:00:Z","depth":"4","parameterNumber":2,"parameterNumberName":"U-component_of_CURRENTS"},"data":[0,0,0,0,0,0,0,0,0,0,0,0,0,0,0,0,0,0,0,0,0,0,0,0,0,0,0,0,0,0,0,0,0,0,0,0,0,0,0,0,0,0,0,0,0,0,0,0,0,0,0,0,0,0,0,0,0,0,-0.1761,-0.1762,0,-0.1799,-0.1799,-0.1799,-0.1834,-0.1835,-0.1836,-0.1836,-0.19,-0.1901,-0.1902,0,0,0,0,0,0,0,0,0,0,0,0,0,-0.1697,-0.1698,-0.1761,-0.1762,-0.1762,-0.1799,-0.1799,-0.1799,-0.1834,-0.1835,-0.1836,-0.1836,-0.1899,-0.1901,-0.1902,0,0,0,0,0,0,0,0,0,0,0,0,0,-0.1727,-0.1698,-0.1761,-0.1785,-0.1788,-0.1799,-0.1799,-0.18,-0.1834,-0.1835,-0.1836,-0.1837,-0.1899,-0.1901,-0.1902,-0.1895,0,0,-0.1907,-0.1908,0,0,0,0,0,0,0,0,-0.1725,-0.1729,-0.1781,-0.1784,-0.1787,-0.1814,-0.18,-0.1833,-0.1834,-0.1815,-0.1836,-0.1837,-0.1874,-0.1878,-0.188,-0.1898,-0.19,-0.1908,-0.1909,-0.1909,-0.191,0,0,0,0,0,0,0,-0.1723,-0.1728,-0.1774,-0.1782,-0.1785,-0.1787,-0.1792,-0.1806,-0.1838,-0.1816,-0.182,-0.1826,-0.1876,-0.1878,-0.1882,-0.1901,-0.1908,-0.1909,-0.191,-0.1911,-0.1982,-0.1982,0,0,0,0,0,0,-0.1723,-0.1726,-0.1773,-0.1775,-0.176,-0.1788,-0.1794,-0.1803,-0.1837,-0.1844,-0.1826,-0.1828,-0.1875,-0.188,-0.1884,-0.1952,-0.1909,-0.1911,-0.1912,-0.1981,-0.1982,-0.1983,0,0,0,0,0,0,-0.1721,-0.1726,-0.1771,-0.1753,-0.1759,-0.1788,-0.1799,-0.1803,-0.1838,-0.1844,-0.1851,-0.186,-0.1876,-0.1882,-0.1921,-0.1952,-0.1912,-0.1913,-0.198,-0.1981,-0.1982,-0.2039,0,0,0,0,0,0,-0.1719,-0.1726,-0.1746,-0.1753,-0.176,-0.1799,-0.1798,-0.1804,-0.184,-0.1844,-0.1875,-0.188,-0.1877,-0.1919,-0.1923,-0.1953,-0.1915,-0.1979,-0.198,-0.1982,-0.2036,-0.2042,-0.2047,0,0,0,0,0,-0.1717,-0.1735,-0.1747,-0.1754,-0.1783,-0.1801,-0.1805,-0.1827,-0.1841,-0.1861,-0.1881,-0.1881,-0.1932,-0.1921,-0.1926,-0.1957,-0.1978,-0.198,-0.1982,-0.2034,-0.2041,-0.2047,0,0,0,0,0,0,-0.1719,-0.1741,-0.1754,-0.178,-0.1801,-0.1808,-0.1831,-0.1845,-0.1876,-0.1889,-0.1894,-0.19,-0.1944,-0.1941,-0.1929,-0.198,-0.1954,-0.1957,-0.1992,-0.1999,-0.2004,-0.199,-0.1916,0,0,0,0,0,-0.1729,-0.175,-0.1769,-0.1793,-0.1806,-0.1825,-0.1842,-0.1858,-0.1878,-0.1894,-0.1915,-0.1934,-0.1949,-0.1968,-0.1979,-0.2012,-0.1987,-0.2033,-0.2039,-0.2044,-0.2035,-0.2025,-0.2029,-0.1989,-0.1989,-0.1989,0,0,-0.1737,-0.1752,-0.1766,-0.1796,-0.1814,-0.1836,-0.1838,-0.1872,-0.1898,-0.1895,-0.1948,-0.1958,-0.1961,-0.1995,-0.2014,-0.2003,-0.2043,-0.2046,-0.2051,-0.2038,-0.2028,-0.2032,-0.2035,-0.1991,-0.199,-0.199,0,0,-0.1749,-0.1779,-0.1797,-0.1819,-0.1853,-0.1865,-0.1883,-0.1912,-0.1937,-0.198,-0.1981,-0.2008,-0.2044,-0.2044,-0.2049,-0.2091,-0.2071,-0.2106,-0.2129,-0.2122,-0.2125,-0.2127,-0.2102,-0.2102,-0.2112,-0.2112,-0.2112,0,-0.1762,-0.1783,-0.1806,-0.1828,-0.1852,-0.1883,-0.1908,-0.1934,-0.1975,-0.1994,-0.2008,-0.205,-0.206,-0.2082,-0.2098,-0.2104,-0.2091,-0.2107,-0.2129,-0.213,-0.2132,-0.2105,-0.2104,-0.2115,-0.2115,-0.2114,-0.2114,0,-0.1772,-0.1807,-0.1821,-0.186,-0.1889,-0.1918,-0.1954,-0.1993,-0.203,-0.2049,-0.2095,-0.2106,-0.2125,-0.214,-0.2135,-0.2155,-0.2139,-0.2135,-0.2111,-0.2139,-0.211,-0.2107,-0.2119,-0.2118,-0.2117,-0.2116,0,0,-0.1748,-0.1817,-0.1824,-0.1853,-0.1911,-0.193,-0.1984,-0.2026,-0.2059,-0.2105,-0.2139,-0.2168,-0.2175,-0.2178,-0.2181,-0.218,-0.2183,-0.2169,-0.2167,-0.2142,-0.2158,-0.2022,-0.2006,-0.219,-0.219,-0.219,-0.2134,0,-0.1751,-0.1798,-0.1833,-0.1887,-0.1914,-0.1966,-0.2009,-0.2057,-0.2099,-0.2141,-0.216,-0.2192,-0.219,-0.2207,-0.2207,-0.2191,-0.218,-0.2198,-0.2135,-0.2132,-0.2006,-0.1999,-0.219,-0.2132,-0.2131,-0.2131,-0.2131,0,-0.1734,-0.1774,-0.1827,-0.1902,-0.192,-0.1962,-0.2034,-0.2076,-0.2136,-0.217,-0.2203,-0.2219,-0.2232,-0.2226,-0.2202,-0.2218,-0.2188,-0.217,-0.2167,-0.2013,-0.1991,-0.2097,-0.2126,-0.2126,-0.2127,-0.2127,-0.2127,0,-0.1684,-0.1763,-0.1808,-0.1835,-0.1926,-0.1966,-0.2017,-0.2086,-0.2119,-0.2186,-0.221,-0.2235,-0.2244,-0.2224,-0.2189,-0.2202,-0.2147,-0.2157,-0.2,-0.1991,-0.2108,-0.2106,-0.2123,-0.2123,-0.2123,-0.2123,-0.2124,0,-0.165,-0.1689,-0.1796,-0.1821,-0.1875,-0.195,-0.2006,-0.2061,-0.213,-0.2147,-0.2216,-0.221,-0.2245,-0.2221,-0.2189,-0.2071,-0.2142,-0.1984,-0.196,-0.2133,-0.2135,-0.2106,-0.2104,-0.2121,-0.2122,-0.2122,-0.2122,0,-0.1575,-0.165,-0.1705,-0.1817,-0.1852,-0.189,-0.199,-0.2019,-0.2102,-0.2125,-0.2145,-0.2194,-0.2152,-0.2157,-0.2115,-0.2044,-0.1968,-0.1909,-0.208,-0.207,-0.1819,-0.1822,-0.1723,-0.1718,-0.1713,-0.1709,-0.1706,0,-0.1534,-0.156,-0.1683,-0.1716,-0.1771,-0.1842,-0.1882,-0.1987,-0.2007,-0.2077,-0.2065,-0.2073,-0.208,-0.19,-0.1933,-0.1853,-0.1832,-0.1788,-0.1809,-0.1788,-0.1776,-0.1786,-0.1794,-0.1699,-0.1698,-0.1696,-0.1695,0,-0.1452,-0.1512,-0.1559,-0.1628,-0.1686,-0.1729,-0.1795,-0.1793,-0.1887,-0.1987,-0.1916,-0.1877,-0.1825,-0.1784,-0.1735,-0.1683,-0.1818,-0.174,-0.1749,-0.1769,-0.1757,-0.1752,-0.1766,-0.1679,-0.1682,-0.1683,-0.1684,0,-0.1385,-0.1398,-0.1468,-0.1507,-0.1578,-0.158,-0.1635,-0.1642,-0.1671,-0.1762,-0.1725,-0.1734,-0.179,-0.1692,-0.1642,-0.1585,-0.1564,-0.1518,-0.1539,-0.1558,-0.153,-0.1492,-0.1291,0,0,0,0,0,-0.1305,-0.1302,-0.1338,-0.1369,-0.1432,-0.146,-0.1554,-0.161,-0.1702,-0.1606,-0.1661,-0.1601,-0.1522,-0.1531,-0.1434,-0.1569,-0.1576,-0.1451,-0.1538,-0.1591,-0.1609,-0.1593,0,0,0,0,0,0,-0.1251,-0.1282,-0.1289,-0.1235,-0.1225,-0.1267,-0.1313,-0.1384,-0.1341,-0.1446,-0.1407,-0.1492,-0.1439,-0.1535,-0.1391,-0.1395,-0.1416,-0.1476,-0.1471,-0.158,-0.1597,-0.1612,-0.1602,0,0,0,0,0]},{"header":{"parameterUnit":"m.s-1","parameterCategory":2,"la1":30.2991,"la2":30.254,"lo1":-89.0895,"lo2":-89.0444,"dy":0.0017,"dx":0.0017,"nx":28,"ny":28,"refTime":"2023-11-04T03:00:00:Z","depth":"4","parameterNumber":3,"parameterNumberName":"V-component_of_CURRENTS"},"data":[0,0,0,0,0,0,0,0,0,0,0,0,0,0,0,0,0,0,0,0,0,0,0,0,0,0,0,0,0,0,0,0,0,0,0,0,0,0,0,0,0,0,0,0,0,0,0,0,0,0,0,0,0,0,0,0,0,0,-0.0239,-0.0239,0,-0.0199,-0.0198,-0.0198,-0.0175,-0.0175,-0.0175,-0.0174,-0.0093,-0.0091,-0.0089,0,0,0,0,0,0,0,0,0,0,0,0,0,-0.0272,-0.0271,-0.0239,-0.0239,-0.0238,-0.0199,-0.0198,-0.0198,-0.0175,-0.0175,-0.0174,-0.0174,-0.0094,-0.0092,-0.0089,0,0,0,0,0,0,0,0,0,0,0,0,0,-0.0247,-0.0271,-0.024,-0.0222,-0.022,-0.0199,-0.0198,-0.0197,-0.0175,-0.0175,-0.0174,-0.0174,-0.0095,-0.0092,-0.0089,-0.0071,0,0,-0.0079,-0.0078,0,0,0,0,0,0,0,0,-0.0248,-0.0246,-0.0225,-0.0224,-0.0221,-0.0192,-0.018,-0.0153,-0.0175,-0.0192,-0.0174,-0.0174,-0.0123,-0.0117,-0.011,-0.0067,-0.0064,-0.0079,-0.0077,-0.0076,-0.0075,0,0,0,0,0,0,0,-0.025,-0.0247,-0.0223,-0.0225,-0.0222,-0.0208,-0.0204,-0.0175,-0.0157,-0.019,-0.0189,-0.0184,-0.0121,-0.0113,-0.0108,-0.0063,-0.0079,-0.0076,-0.0074,-0.0073,-0.0003,-0.0003,0,0,0,0,0,0,-0.0257,-0.0249,-0.0224,-0.0222,-0.0235,-0.0207,-0.0204,-0.0201,-0.0159,-0.0152,-0.0184,-0.0183,-0.0119,-0.0112,-0.0105,-0.0081,-0.0076,-0.0073,-0.0071,-0.0003,-0.0003,-0.0003,0,0,0,0,0,0,-0.0258,-0.0255,-0.0226,-0.0234,-0.023,-0.0207,-0.0205,-0.02,-0.0195,-0.0155,-0.0148,-0.0184,-0.0118,-0.0109,-0.0084,-0.0078,-0.0071,-0.0068,-0.0003,-0.0003,-0.0003,-0.0033,0,0,0,0,0,0,-0.0259,-0.0256,-0.026,-0.0235,-0.023,-0.0219,-0.0204,-0.02,-0.0193,-0.0191,-0.0152,-0.0144,-0.0118,-0.0089,-0.0081,-0.0073,-0.0066,-0.0003,-0.0003,-0.0003,-0.0032,-0.0034,-0.0036,0,0,0,0,0,-0.026,-0.0264,-0.026,-0.0257,-0.0235,-0.0219,-0.0215,-0.0198,-0.0193,-0.0193,-0.0167,-0.0145,-0.0083,-0.0086,-0.0077,-0.0068,-0.0003,-0.0003,-0.0003,-0.0031,-0.0033,-0.0036,0,0,0,0,0,0,-0.0281,-0.0262,-0.0257,-0.0255,-0.0242,-0.0215,-0.0215,-0.0203,-0.0183,-0.0183,-0.0145,-0.0135,-0.0111,-0.0088,-0.0092,-0.0049,-0.004,-0.0038,-0.0064,-0.0066,-0.0068,-0.0078,-0.0063,0,0,0,0,0,-0.0288,-0.0287,-0.0266,-0.0267,-0.0261,-0.024,-0.0233,-0.0222,-0.02,-0.0192,-0.0164,-0.0133,-0.0104,-0.0085,-0.0059,-0.0033,-0.0003,-0.0022,-0.0024,-0.0026,-0.0028,0.0025,0.0028,-0.0003,-0.0003,-0.0003,0,0,-0.0297,-0.0287,-0.0287,-0.0272,-0.026,-0.0255,-0.0236,-0.0229,-0.0222,-0.0185,-0.0168,-0.0141,-0.01,-0.0074,-0.0061,-0.0053,-0.0002,-0.0026,-0.0027,-0.0029,0.0025,0.0028,0.0031,-0.0003,-0.0003,-0.0003,0,0,-0.0314,-0.0306,-0.0311,-0.0301,-0.0287,-0.0272,-0.0273,-0.0249,-0.0237,-0.0218,-0.0189,-0.0157,-0.0119,-0.0081,-0.0059,-0.0054,-0.0018,-0.005,-0.006,-0.0009,-0.0006,-0.0003,0.0035,0.0042,-0.0046,-0.0046,-0.0046,0,-0.0327,-0.0328,-0.031,-0.0311,-0.0306,-0.0282,-0.0285,-0.0267,-0.0238,-0.0224,-0.022,-0.0153,-0.0118,-0.0073,-0.0073,-0.0056,-0.0031,-0.0055,-0.0011,-0.0008,-0.0004,0.0035,0.0043,-0.0048,-0.0048,-0.0047,-0.0047,0,-0.0342,-0.0346,-0.0349,-0.0342,-0.0333,-0.0334,-0.0307,-0.0296,-0.028,-0.0256,-0.0218,-0.017,-0.013,-0.0111,-0.0091,-0.0046,-0.0038,-0.0023,-0.0006,-0.0002,0.0038,0.0047,-0.005,-0.0049,-0.0049,-0.0048,0,0,-0.0366,-0.0362,-0.0364,-0.0371,-0.0351,-0.0349,-0.0334,-0.031,-0.0302,-0.0265,-0.0243,-0.0184,-0.0159,-0.0132,-0.0095,-0.0049,0.0002,-0.0032,-0.0028,0.0005,0.0104,0.0087,0.0095,0.0022,0.0024,0.0025,0.012,0,-0.0387,-0.0403,-0.0388,-0.0403,-0.041,-0.0383,-0.0373,-0.0347,-0.0319,-0.0292,-0.0229,-0.0199,-0.0165,-0.015,-0.0096,-0.0026,0.0024,-0.0026,0.0096,0.01,0.0084,0.0105,0.0029,0.0127,0.0129,0.013,0.0131,0,-0.0407,-0.0416,-0.0438,-0.0441,-0.0441,-0.0444,-0.0427,-0.0415,-0.0362,-0.0338,-0.0287,-0.0242,-0.0168,-0.0147,-0.0013,-0.005,0.0021,0.0079,0.0084,0.0085,0.0099,0.0125,0.0148,0.0146,0.0145,0.0144,0.0143,0,-0.0439,-0.0451,-0.0474,-0.0475,-0.0471,-0.0475,-0.0472,-0.0433,-0.0424,-0.0369,-0.0354,-0.026,-0.0218,-0.0113,0.0003,-0.0004,0.0145,0.0158,0.0214,0.0213,0.0213,0.0208,0.0255,0.0255,0.0255,0.0255,0.0254,0,-0.0464,-0.0484,-0.0497,-0.051,-0.054,-0.0519,-0.0535,-0.0513,-0.0478,-0.0464,-0.0386,-0.0348,-0.0209,-0.0108,-0.0002,0.013,0.015,0.0215,0.024,0.0197,0.019,0.0219,0.0213,0.0258,0.0257,0.0257,0.0256,0,-0.0493,-0.0501,-0.0533,-0.0547,-0.0559,-0.0582,-0.0593,-0.0595,-0.0557,-0.0535,-0.0521,-0.0407,-0.0275,-0.0134,0.0042,0.0118,0.0249,0.0292,0.0227,0.0246,0.0283,0.0275,0.0365,0.0365,0.0366,0.0366,0.0366,0,-0.0507,-0.0527,-0.0572,-0.0604,-0.0616,-0.0648,-0.0667,-0.0643,-0.0634,-0.0565,-0.0548,-0.0428,-0.0339,-0.0097,0.0043,0.0246,0.0272,0.0332,0.0315,0.0281,0.0297,0.0288,0.028,0.0366,0.0366,0.0367,0.0367,0,-0.0533,-0.0554,-0.0582,-0.0651,-0.0689,-0.0722,-0.0739,-0.0736,-0.0693,-0.0664,-0.0552,-0.0424,-0.0277,-0.0094,0.0058,0.0203,0.0288,0.0335,0.0336,0.032,0.0284,0.0297,0.0289,0.0367,0.0367,0.0367,0.0367,0,-0.0555,-0.0588,-0.0634,-0.0689,-0.0745,-0.0772,-0.0778,-0.0744,-0.0723,-0.0629,-0.0593,-0.0425,-0.0323,-0.0116,0.0028,0.0162,0.0195,0.0233,0.0239,0.024,0.0169,0.0102,0.0156,0,0,0,0,0,-0.0569,-0.061,-0.0668,-0.0727,-0.078,-0.0803,-0.0812,-0.0799,-0.0755,-0.0678,-0.0628,-0.0482,-0.0257,-0.0154,-0.002,0.0014,0.0199,0.0172,0.024,0.0372,0.0371,0.0306,0,0,0,0,0,0,-0.0583,-0.0641,-0.0669,-0.0742,-0.0783,-0.0829,-0.0831,-0.0801,-0.0738,-0.0677,-0.0548,-0.0467,-0.0243,-0.0334,-0.0023,0.0017,0.0075,0.0284,0.0286,0.0372,0.0372,0.0371,0.0304,0,0,0,0,0]}]]